CZ-6A DEB, 54291

Orbit data source: Space-Track

CZ-6A DEB, 54291 is space debris in SSO originally from a launch on Fri, 11 Nov 2022 UTC launched from the Taiyaun Space Center, China (TSC). Debris objects in space refer to the collection of defunct objects orbiting the Earth. Examples of debris include non-operational satellites, rocket bodies, and fragments generated from explosions, collisions, or faulty payload assembly.

Loading next visibility...
Identifier
54291, 2022-151AJ
Orbit
SSO
Country
Flag of CNCN / PRC
Related business
Manufacturer
SAST
Mission
Spacecraft
Bus & Motor
Unknown
Mass
Unknown
Launch date (UTC)
2022-11-11 (3 years ago)
Launch vehicle
Unknown
Launch site
Taiyaun Space Center, China (TSC)
Object type
Payload
Rocket body
Debris
Shape & HBR
Unknown shape, 0.1 m
Radar Cross Section
Small (<0.1 m²)

Expand to show TLE details & history
Last TLE update: 6 hours ago

TLE from 6 hours ago
0 CZ-6A DEB
1 54291U 22151AJ  25352.26167584  .00000371  00000-0  24634-3 0  9991
2 54291  98.8504 342.6178 0081465 103.4334 257.5930 14.05679720158477
Epoch: 2025-12-18T06:16Z
TLE epoch observation values (Epoch: 2025-12-18T06:16:48.792Z)
Latitude
-0.00001°
Longitude
161.29479°
Altitude
890.239 km
Speed
7.4 km/s
True Right ascension
22h 50m 28s
True Declination
0° 00' 00"
Sunlit
Object was in daylight at epoch
Visualization orbit readout
Latitude
Unknown
Longitude
Unknown
Altitude
Unknown
Speed
Unknown
Apparent Right ascension
Unknown
Apparent Declination
Unknown
Sunlit
N/A
Visualization observer readout
Local Sidereal Time
11:25:55
Azimuth
Unknown
Elevation
Unknown
Doppler factor
Unknown
Orbital elements
Apogee altitude
930.436 km
Perigee altitude
812.32 km
Semi-major axis
7,249.515 km
Eccentricity
0.00815
Inclination
98.8504°
RAAN
342.6178°
Arg. of periapsis
103.4334°
True anomaly
256.68331°
Mean anomaly
257.593°
Eccentric anomaly
257.13795°
Mean motion
3.51625 °/min
Orbital period
102.38 mins
BSTAR
0.00024634
Loading maneuver chart data...
Computing Atmospheric mass density...
Loading historical data...
Loading historical data...
Loading historical data...
Loading historical data...
Loading historical data...
Loading historical data...
Loading historical data...

Documentation

Showing up to 5 results
|